| time (UTC) | temp F | wind direction | speed MPH | gust MPH | rain 1hr in | rain 24hr in | rain mn in | humidity % | barometer mb |
| 20260510013346 | 75 | 330 | 2.0 | 4.0 | 0.00 | 0.00 | 0.00 | 42 | 1015.3 |
| 20260510011835 | 75 | 329 | 1.0 | 6.0 | 0.00 | 0.00 | 0.00 | 42 | 1015.6 |
| 20260510010340 | 75 | 6 | 3.0 | 6.0 | 0.00 | 0.00 | 0.00 | 43 | 1015.6 |
| 20260510004829 | 76 | 321 | 3.0 | 5.0 | 0.00 | 0.00 | 0.00 | 45 | 1015.7 |
| 20260510003338 | 76 | 346 | 4.0 | 7.0 | 0.00 | 0.00 | 0.00 | 41 | 1015.9 |
| 20260510001827 | 76 | 320 | 3.0 | 5.0 | 0.00 | 0.00 | 0.00 | 36 | 1016.0 |
| 20260510000318 | 77 | 13 | 2.0 | 7.0 | 0.00 | 0.00 | 0.00 | 35 | 1016.2 |
| 20260509234822 | 77 | 303 | 2.0 | 6.0 | 0.00 | 0.00 | 0.00 | 37 | 1016.3 |
| 20260509233330 | 77 | 338 | 5.0 | 10.0 | 0.00 | 0.00 | 0.00 | 39 | 1016.4 |
| 20260509231834 | 77 | 333 | 2.0 | 7.0 | 0.00 | 0.00 | 0.00 | 41 | 1016.5 |
| 20260509230322 | 77 | 323 | 5.0 | 8.0 | 0.00 | 0.00 | 0.00 | 43 | 1016.7 |
| 20260509224827 | 76 | 322 | 2.0 | 9.0 | 0.00 | 0.00 | 0.00 | 49 | 1016.9 |
| 20260509223336 | 77 | 350 | 8.0 | 12.0 | 0.00 | 0.00 | 0.00 | 49 | 1016.9 |
| 20260509221822 | 77 | 345 | 1.0 | 10.0 | 0.00 | 0.00 | 0.00 | 52 | 1017.2 |
| 20260509220328 | 76 | 353 | 4.0 | 9.0 | 0.00 | 0.00 | 0.00 | 56 | 1017.5 |
| 20260509214830 | 75 | 317 | 4.0 | 10.0 | 0.00 | 0.00 | 0.00 | 56 | 1017.7 |
| 20260509213334 | 75 | 40 | 2.0 | 11.0 | 0.00 | 0.00 | 0.00 | 55 | 1017.9 |
| 20260509211838 | 75 | 360 | 4.0 | 9.0 | 0.00 | 0.00 | 0.00 | 58 | 1018.1 |
| 20260509210347 | 75 | 335 | 5.0 | 8.0 | 0.00 | 0.00 | 0.00 | 58 | 1018.1 |
| 20260509204832 | 74 | 327 | 2.0 | 7.0 | 0.00 | 0.00 | 0.00 | 58 | 1018.3 |
| 20260509203332 | 72 | 342 | 6.0 | 10.0 | 0.00 | 0.00 | 0.00 | 60 | 1018.4 |
| 20260509201818 | 72 | 342 | 2.0 | 6.0 | 0.00 | 0.00 | 0.00 | 59 | 1018.7 |
| 20260509200325 | 71 | 314 | 2.0 | 8.0 | 0.00 | 0.00 | 0.00 | 60 | 1018.8 |
| 20260509194850 | 70 | 321 | 3.0 | 8.0 | 0.00 | 0.00 | 0.00 | 61 | 1019.1 |
| 20260509193333 | 69 | 323 | 6.0 | 10.0 | 0.00 | 0.00 | 0.00 | 62 | 1019.3 |
| 20260509191821 | 68 | 330 | 4.0 | 8.0 | 0.00 | 0.00 | 0.00 | 65 | 1019.4 |
| 20260509190347 | 68 | 320 | 5.0 | 11.0 | 0.00 | 0.00 | 0.00 | 67 | 1019.6 |
| 20260509184832 | 66 | 302 | 2.0 | 9.0 | 0.00 | 0.00 | 0.00 | 72 | 1019.6 |
| 20260509183338 | 65 | 300 | 4.0 | 9.0 | 0.00 | 0.00 | 0.00 | 71 | 1019.8 |
| 20260509181826 | 64 | 310 | 4.0 | 6.0 | 0.00 | 0.00 | 0.00 | 74 | 1019.9 |
| 20260509180350 | 63 | 342 | 5.0 | 10.0 | 0.00 | 0.00 | 0.00 | 74 | 1020.0 |
| 20260509174833 | 62 | 325 | 4.0 | 7.0 | 0.00 | 0.00 | 0.00 | 77 | 1020.1 |
| 20260509173338 | 60 | 308 | 5.0 | 10.0 | 0.00 | 0.00 | 0.00 | 79 | 1020.1 |
| 20260509171820 | 59 | 327 | 5.0 | 10.0 | 0.00 | 0.00 | 0.00 | 79 | 1020.2 |
| 20260509170344 | 58 | 348 | 6.0 | 11.0 | 0.00 | 0.00 | 0.00 | 81 | 1020.3 |
| 20260509164825 | 57 | 329 | 6.0 | 10.0 | 0.00 | 0.00 | 0.00 | 82 | 1020.5 |
| 20260509163336 | 57 | 323 | 6.0 | 11.0 | 0.00 | 0.00 | 0.00 | 84 | 1020.6 |
| 20260509161824 | 56 | 336 | 3.0 | 8.0 | 0.00 | 0.00 | 0.00 | 85 | 1020.7 |
| 20260509160328 | 55 | 321 | 2.0 | 9.0 | 0.00 | 0.00 | 0.00 | 85 | 1021.0 |
| 20260509154837 | 54 | 341 | 6.0 | 9.0 | 0.00 | 0.00 | 0.00 | 87 | 1021.0 |
| 20260509153325 | 54 | 323 | 3.0 | 9.0 | 0.00 | 0.00 | 0.00 | 87 | 1021.1 |
| 20260509151834 | 53 | 326 | 5.0 | 8.0 | 0.00 | 0.00 | 0.00 | 89 | 1021.1 |
| 20260509150338 | 52 | 320 | 4.0 | 7.0 | 0.00 | 0.00 | 0.00 | 90 | 1021.5 |
| 20260509144827 | 52 | 333 | 4.0 | 8.0 | 0.00 | 0.00 | 0.00 | 91 | 1021.5 |
| 20260509143335 | 51 | 344 | 5.0 | 9.0 | 0.00 | 0.00 | 0.00 | 91 | 1021.5 |
| 20260509141823 | 51 | 340 | 4.0 | 7.0 | 0.00 | 0.00 | 0.00 | 93 | 1021.4 |
| 20260509140328 | 50 | 327 | 3.0 | 5.0 | 0.00 | 0.00 | 0.00 | 94 | 1021.3 |
| 20260509134835 | 49 | 327 | 2.0 | 5.0 | 0.00 | 0.00 | 0.00 | 94 | 1021.3 |
| 20260509133340 | 49 | 324 | 2.0 | 6.0 | 0.00 | 0.00 | 0.00 | 94 | 1021.1 |
| 20260509131828 | 48 | 315 | 3.0 | 6.0 | 0.00 | 0.00 | 0.00 | 93 | 1021.2 |
| 20260509130316 | 48 | 309 | 1.0 | 5.0 | 0.00 | 0.00 | 0.00 | 91 | 1021.2 |
| 20260509124823 | 48 | 324 | 3.0 | 4.0 | 0.00 | 0.00 | 0.00 | 91 | 1021.3 |
| 20260509123333 | 49 | 329 | 1.0 | 2.0 | 0.00 | 0.00 | 0.00 | 91 | 1021.3 |
| 20260509121819 | 49 | 327 | 1.0 | 4.0 | 0.00 | 0.00 | 0.00 | 91 | 1021.5 |
| 20260509120323 | 50 | 314 | 3.0 | 5.0 | 0.00 | 0.00 | 0.00 | 91 | 1021.5 |
| 20260509114831 | 50 | 317 | 2.0 | 6.0 | 0.00 | 0.00 | 0.00 | 91 | 1021.5 |
| 20260509113343 | 50 | 329 | 3.0 | 6.0 | 0.00 | 0.00 | 0.00 | 90 | 1021.6 |
| 20260509111827 | 50 | 313 | 4.0 | 7.0 | 0.00 | 0.00 | 0.00 | 91 | 1021.5 |
| 20260509110334 | 50 | 314 | 4.0 | 5.0 | 0.00 | 0.00 | 0.00 | 90 | 1021.6 |
| 20260509104858 | 50 | 323 | 3.0 | 5.0 | 0.00 | 0.00 | 0.00 | 89 | 1021.8 |
| 20260509103323 | 51 | 319 | 2.0 | 5.0 | 0.00 | 0.00 | 0.00 | 88 | 1022.0 |
| 20260509101829 | 51 | 317 | 3.0 | 5.0 | 0.00 | 0.00 | 0.00 | 87 | 1021.9 |
| 20260509100336 | 52 | 314 | 3.0 | 6.0 | 0.00 | 0.00 | 0.00 | 87 | 1022.0 |
| 20260509094823 | 52 | 317 | 3.0 | 6.0 | 0.00 | 0.00 | 0.00 | 86 | 1022.0 |
| 20260509093324 | 53 | 323 | 4.0 | 8.0 | 0.00 | 0.00 | 0.00 | 85 | 1022.2 |
| 20260509091831 | 53 | 327 | 3.0 | 7.0 | 0.00 | 0.00 | 0.00 | 85 | 1022.1 |
| 20260509090321 | 54 | 309 | 4.0 | 8.0 | 0.00 | 0.00 | 0.00 | 85 | 1022.2 |
| 20260509084829 | 54 | 315 | 4.0 | 8.0 | 0.00 | 0.00 | 0.00 | 84 | 1022.3 |
| 20260509083337 | 54 | 317 | 5.0 | 9.0 | 0.00 | 0.00 | 0.00 | 83 | 1022.4 |
| 20260509081821 | 55 | 319 | 5.0 | 10.0 | 0.00 | 0.00 | 0.00 | 83 | 1022.6 |
| 20260509080324 | 55 | 309 | 5.0 | 8.0 | 0.00 | 0.00 | 0.00 | 82 | 1022.5 |
| 20260509074834 | 55 | 314 | 5.0 | 14.0 | 0.00 | 0.00 | 0.00 | 82 | 1022.6 |
| 20260509073341 | 55 | 311 | 3.0 | 8.0 | 0.00 | 0.00 | 0.00 | 82 | 1022.6 |
| 20260509071831 | 55 | 304 | 0.0 | 3.0 | 0.00 | 0.00 | 0.00 | 81 | 1022.5 |
| 20260509070340 | 55 | 300 | 1.0 | 3.0 | 0.00 | 0.00 | 0.00 | 80 | 1022.6 |
| 20260509064823 | 55 | 248 | 0.0 | 2.0 | 0.00 | 0.00 | 0.00 | 81 | 1022.5 |
| 20260509063333 | 55 | 231 | 2.0 | 7.0 | 0.00 | 0.00 | 0.00 | 80 | 1022.5 |
| 20260509061825 | 55 | 227 | 3.0 | 8.0 | 0.00 | 0.00 | 0.00 | 80 | 1022.5 |
| 20260509060336 | 56 | 219 | 3.0 | 7.0 | 0.00 | 0.00 | 0.00 | 80 | 1022.5 |
| 20260509054827 | 56 | 235 | 6.0 | 12.0 | 0.00 | 0.00 | 0.00 | 79 | 1022.6 |
| 20260509053315 | 57 | 233 | 5.0 | 13.0 | 0.00 | 0.00 | 0.00 | 78 | 1022.6 |
| 20260509051852 | 57 | 240 | 4.0 | 10.0 | 0.00 | 0.00 | 0.00 | 77 | 1022.5 |
| 20260509050333 | 58 | 240 | 4.0 | 11.0 | 0.00 | 0.00 | 0.00 | 77 | 1022.4 |
| 20260509044824 | 58 | 243 | 5.0 | 9.0 | 0.00 | 0.00 | 0.00 | 76 | 1022.3 |
| 20260509043334 | 58 | 237 | 5.0 | 12.0 | 0.00 | 0.00 | 0.00 | 75 | 1022.0 |
| 20260509041821 | 59 | 248 | 4.0 | 12.0 | 0.00 | 0.00 | 0.00 | 75 | 1021.9 |
| 20260509040331 | 60 | 246 | 6.0 | 16.0 | 0.00 | 0.00 | 0.00 | 74 | 1021.9 |
| 20260509034820 | 60 | 225 | 5.0 | 11.0 | 0.00 | 0.00 | 0.00 | 73 | 1021.8 |
| 20260509033335 | 61 | 234 | 6.0 | 11.0 | 0.00 | 0.00 | 0.00 | 72 | 1021.7 |
| 20260509031845 | 61 | 235 | 4.0 | 11.0 | 0.00 | 0.00 | 0.00 | 72 | 1021.7 |
| 20260509030329 | 62 | 250 | 6.0 | 11.0 | 0.00 | 0.00 | 0.00 | 70 | 1021.7 |
| 20260509024824 | 63 | 238 | 4.0 | 7.0 | 0.00 | 0.00 | 0.00 | 68 | 1021.6 |
| 20260509023332 | 65 | 221 | 2.0 | 5.0 | 0.00 | 0.00 | 0.00 | 65 | 1021.5 |
| 20260509021839 | 67 | 246 | 1.0 | 7.0 | 0.00 | 0.00 | 0.00 | 62 | 1021.4 |
| 20260509020328 | 68 | 237 | 2.0 | 6.0 | 0.00 | 0.00 | 0.00 | 61 | 1021.4 |
| 20260509014835 | 68 | 225 | 3.0 | 7.0 | 0.00 | 0.00 | 0.00 | 59 | 1021.4 |